TimeCDT,TemperatureF,Dew PointF,Humidity,Sea Level PressureIn,VisibilityMPH,Wind Direction,Wind SpeedMPH,Gust SpeedMPH,PrecipitationIn,Events,Conditions,WindDirDegrees,DateUTC
12:53 AM,81.0,69.1,67,29.90,10.0,South,6.9,-,N/A,,Clear,190,2013-06-26 05:53:00
1:53 AM,80.1,69.1,69,29.89,10.0,South,6.9,-,N/A,,Clear,190,2013-06-26 06:53:00
2:53 AM,79.0,69.1,72,29.87,10.0,South,5.8,-,N/A,,Clear,190,2013-06-26 07:53:00
3:53 AM,79.0,68.0,69,29.86,10.0,South,8.1,-,N/A,,Mostly Cloudy,190,2013-06-26 08:53:00
4:53 AM,78.1,69.1,74,29.87,10.0,South,6.9,-,N/A,,Mostly Cloudy,190,2013-06-26 09:53:00
5:53 AM,78.1,70.0,76,29.88,10.0,South,8.1,-,N/A,,Clear,190,2013-06-26 10:53:00
6:53 AM,79.0,71.1,77,29.88,10.0,South,10.4,-,N/A,,Mostly Cloudy,190,2013-06-26 11:53:00
7:53 AM,81.0,72.0,74,29.87,10.0,SSW,12.7,-,N/A,,Clear,200,2013-06-26 12:53:00
8:53 AM,84.0,73.0,69,29.86,10.0,SSW,19.6,26.5,N/A,,Clear,200,2013-06-26 13:53:00
9:46 AM,84.2,73.4,70,29.88,10.0,SSW,18.4,-,N/A,Thunderstorm,Overcast,210,2013-06-26 14:46:00
9:53 AM,82.0,73.0,74,29.86,7.0,SSW,19.6,26.5,0.00,Rain-Thunderstorm,Light Thunderstorms and Rain,200,2013-06-26 14:53:00
10:15 AM,80.6,73.4,79,29.87,10.0,SSW,11.5,-,0.00,,Overcast,200,2013-06-26 15:15:00
10:53 AM,82.0,73.9,76,29.86,10.0,SSW,12.7,20.7,0.00,,Overcast,200,2013-06-26 15:53:00
11:53 AM,86.0,73.9,67,29.87,10.0,SSW,16.1,-,N/A,,Mostly Cloudy,210,2013-06-26 16:53:00
12:53 PM,87.1,73.9,65,29.86,10.0,SSW,18.4,27.6,N/A,,Scattered Clouds,210,2013-06-26 17:53:00
1:53 PM,90.0,73.9,59,29.84,10.0,SW,11.5,23.0,N/A,,Clear,220,2013-06-26 18:53:00
2:53 PM,91.9,73.0,54,29.82,10.0,SW,13.8,-,N/A,,Clear,220,2013-06-26 19:53:00
3:53 PM,93.9,73.9,52,29.81,10.0,SSW,13.8,18.4,N/A,,Clear,210,2013-06-26 20:53:00
4:53 PM,93.9,73.9,52,29.78,10.0,SW,13.8,19.6,N/A,,Clear,220,2013-06-26 21:53:00
5:53 PM,93.9,73.9,52,29.78,10.0,SW,12.7,-,N/A,,Clear,230,2013-06-26 22:53:00
6:53 PM,91.9,73.0,54,29.76,10.0,SSW,12.7,-,N/A,,Clear,210,2013-06-26 23:53:00
7:53 PM,89.1,73.9,61,29.76,10.0,SW,10.4,-,N/A,,Clear,220,2013-06-27 00:53:00
8:53 PM,88.0,73.9,63,29.76,10.0,SW,11.5,-,N/A,,Clear,220,2013-06-27 01:53:00
9:53 PM,87.1,73.9,65,29.78,10.0,SW,9.2,-,N/A,,Clear,230,2013-06-27 02:53:00
10:53 PM,86.0,73.9,67,29.79,10.0,WSW,8.1,-,N/A,,Clear,240,2013-06-27 03:53:00
11:53 PM,84.0,75.0,74,29.81,10.0,WSW,3.5,-,N/A,,Clear,240,2013-06-27 04:53:00